Location: ??? ???
(33.4974°N, 35.4618°E)
Time: 01:06:06
(UTC+00:00)

S3M - Pass Details

Date: 29 October 2020
Orbit: 950 x 1003 km, 83.0° (Epoch: 25 November)

Event Time Altitude Azimuth Distance (km) Brightness Sun altitude
Rises 15:24:49 0° 165° (SSE) 3,606 6.9 -8.1°
Reaches altitude 10° 15:27:25 10° 159° (SSE) 2,665 6.2 -8.7°
Maximum altitude 15:33:05 43° 90° (E) 1,320 4.3 -9.8°
Drops below altitude 10° 15:38:49 10° 21° (NNE) 2,695 6.0 -11.0°
Sets 15:41:27 0° 15° (NNE) 3,651 6.8 -11.6°
